Weather History for Roros Lufthavn, Norway

Change the Weather History Date:

Saturday, February 16, 2013

  Actual Average Record
Temperature  
Mean Temperature 12 °F -  
Max Temperature 28 °F 24 °F 42 °F (2002)
Min Temperature -5 °F 13 °F -27 °F (1997)
Degree Days  
Heating Degree Days 54    
Moisture  
Dew Point 5 °F    
Average Humidity 81    
Maximum Humidity 93    
Minimum Humidity 64    
Precipitation  
Precipitation 0.00 in - - ()
Sea Level Pressure  
Sea Level Pressure 30.05 in    
Wind  
Wind Speed 1 mph ()    
Max Wind Speed 8 mph    
Max Gust Speed -    
Visibility 6.0 miles    
Events Snow    
Averages and records for this station are not official NWS values.
T = Trace of Precipitation, MM = Missing Value Source: Averaged Metar Reports

Daily Weather History Graph

Daily Weather History Graph

Search for Another Location

Airport:

Trip Planner

Search our weather history database for the weather conditions in past years. The results will help you decide how hot, cold, wet, or windy it might be!

Date:

Astronomy

Feb. 16, 2013 Rise Set
Actual Time 7:59 AM CET 4:58 PM CET
Civil Twilight 7:11 AM CET 5:46 PM CET
Nautical Twilight 6:18 AM CET 6:39 PM CET
Astronomical Twilight 5:26 AM CET 7:32 PM CET
Moon 8:48 AM CET (2/16) 12:50 AM CET (2/16)
Length of Visible Light 10h 35m
Length of Day
8h 59m
Waxing Crescent, 37% of the Moon is Illuminated
Feb 16
Waxing Crescent
Feb 17
First Quarter
Feb 25
Full
Mar 4
Last Quarter
Mar 11
New

Hourly Weather History & Observations

Time (CET) Temp. Windchill Dew Point Humidity Pressure Visibility Wind Dir Wind Speed Gust Speed Precip Events Conditions
12:20 AM -4.0 °F - -7.6 °F 85% 30.01 in 6.2 mi NNW 1.2 mph - N/A   Unknown
12:50 AM -4.0 °F - -9.4 °F 78% 30.01 in 6.2 mi Variable 1.2 mph - N/A   Unknown
1:20 AM -5.8 °F - -9.4 °F 84% 30.01 in 6.2 mi Calm Calm - N/A   Unknown
1:50 AM -5.8 °F - -9.4 °F 84% 30.01 in 6.2 mi Calm Calm - N/A   Mostly Cloudy
2:20 AM -5.8 °F - -9.4 °F 84% 30.01 in 6.2 mi Calm Calm - N/A   Mostly Cloudy
2:50 AM -5.8 °F - -9.4 °F 84% 30.01 in 6.2 mi Calm Calm - N/A   Overcast
3:20 AM -2.2 °F - -5.8 °F 85% 30.01 in 6.2 mi Calm Calm - N/A   Overcast
3:50 AM -0.4 °F - -4.0 °F 85% 30.01 in 6.2 mi Variable 1.2 mph - N/A   Overcast
4:20 AM 3.2 °F - -0.4 °F 85% 30.01 in 6.2 mi Variable 1.2 mph - N/A   Overcast
4:50 AM 3.2 °F - 1.4 °F 92% 30.01 in 6.2 mi Calm Calm - N/A Snow Light Snow
5:20 AM 6.8 °F - 3.2 °F 85% 30.01 in 6.2 mi Calm Calm - N/A Snow Light Snow
5:50 AM 6.8 °F - 3.2 °F 85% 30.04 in 6.2 mi Calm Calm - N/A Snow Light Snow
6:20 AM 6.8 °F - 3.2 °F 85% 30.04 in 1.8 mi Calm Calm - N/A Snow Light Snow
6:50 AM 8.6 °F - 5.0 °F 85% 30.04 in 4.3 mi Calm Calm - N/A Snow Light Snow
7:20 AM 8.6 °F - 6.8 °F 92% 30.04 in 6.2 mi Calm Calm - N/A Snow Light Snow
7:50 AM 10.4 °F - 6.8 °F 85% 30.04 in 2.2 mi Calm Calm - N/A Snow Light Snow
8:20 AM 10.4 °F - 8.6 °F 92% 30.04 in 6.2 mi Calm Calm - N/A   Ice Crystals
8:50 AM 12.2 °F - 10.4 °F 92% 30.04 in 6.2 mi Calm Calm - N/A   Mostly Cloudy
9:20 AM 14.0 °F - 10.4 °F 86% 30.06 in 6.2 mi Calm Calm - N/A   Mostly Cloudy
9:50 AM 14.0 °F - 12.2 °F 93% 30.06 in 6.2 mi Calm Calm - N/A   Mostly Cloudy
10:20 AM 14.0 °F - 12.2 °F 93% 30.06 in 6.2 mi Calm Calm - N/A   Mostly Cloudy
10:50 AM 15.8 °F - 14.0 °F 93% 30.06 in 6.2 mi Calm Calm - N/A   Partly Cloudy
11:20 AM 21.2 °F - 14.0 °F 74% 30.06 in 6.2 mi Calm Calm - N/A   Unknown
11:50 AM 28.4 °F - 17.6 °F 64% 30.06 in 6.2 mi Calm Calm - N/A   Unknown
12:20 PM 28.4 °F - 17.6 °F 64% 30.06 in 6.2 mi Calm Calm - N/A   Unknown
12:50 PM 26.6 °F - 15.8 °F 64% 30.06 in 6.2 mi Calm Calm - N/A   Unknown
1:20 PM 28.4 °F - 17.6 °F 64% 30.06 in 6.2 mi East 2.3 mph - N/A   Unknown
1:50 PM 26.6 °F 22.6 °F 15.8 °F 64% 30.06 in 6.2 mi East 3.5 mph - N/A   Unknown
2:20 PM 26.6 °F 21.2 °F 15.8 °F 64% 30.06 in 6.2 mi East 4.6 mph - N/A   Unknown
2:50 PM 26.6 °F 20.0 °F 15.8 °F 64% 30.06 in 6.2 mi ESE 5.8 mph - N/A   Partly Cloudy
3:20 PM 26.6 °F 20.0 °F 15.8 °F 64% 30.06 in 6.2 mi ESE 5.8 mph - N/A   Mostly Cloudy
3:50 PM 26.6 °F 18.2 °F 15.8 °F 64% 30.06 in 6.2 mi ESE 8.1 mph - N/A   Mostly Cloudy
4:20 PM 23.0 °F 14.7 °F 14.0 °F 68% 30.06 in 6.2 mi SE 6.9 mph - N/A   Unknown
4:50 PM 19.4 °F 12.8 °F 10.4 °F 68% 30.06 in 6.2 mi SE 4.6 mph - N/A   Unknown
5:20 PM 14.0 °F - 8.6 °F 79% 30.06 in 6.2 mi Calm Calm - N/A   Unknown
5:50 PM 12.2 °F - 6.8 °F 79% 30.06 in 6.2 mi SE 2.3 mph - N/A   Unknown
6:20 PM 10.4 °F - 6.8 °F 85% 30.06 in 6.2 mi Variable 2.3 mph - N/A   Unknown
6:50 PM 8.6 °F - 5.0 °F 85% 30.06 in 6.2 mi Calm Calm - N/A   Unknown
7:20 PM 5.0 °F - 1.4 °F 85% 30.06 in 6.2 mi Calm Calm - N/A   Unknown
7:50 PM 5.0 °F - 1.4 °F 85% 30.06 in 6.2 mi Calm Calm - N/A   Unknown
8:20 PM 1.4 °F - -2.2 °F 85% 30.06 in 6.2 mi Calm Calm - N/A   Unknown
8:50 PM 1.4 °F - -2.2 °F 85% 30.06 in 6.2 mi Calm Calm - N/A   Mostly Cloudy
9:20 PM 3.2 °F - -0.4 °F 85% 30.06 in 6.2 mi ESE 1.2 mph - N/A   Scattered Clouds
9:50 PM 5.0 °F - 1.4 °F 85% 30.06 in 6.2 mi Calm Calm - N/A   Scattered Clouds
10:20 PM 5.0 °F - 3.2 °F 92% 30.06 in 6.2 mi Calm Calm - N/A   Overcast
10:50 PM 6.8 °F - 3.2 °F 85% 30.06 in 6.2 mi Calm Calm - N/A   Overcast
11:20 PM 6.8 °F - 5.0 °F 92% 30.06 in 6.2 mi SE 2.3 mph - N/A   Overcast
11:50 PM 8.6 °F - 5.0 °F 85% 30.06 in 6.2 mi Calm Calm - N/A   Overcast